TimePDT,TemperatureF,Dew PointF,Humidity,Sea Level PressureIn,VisibilityMPH,Wind Direction,Wind SpeedMPH,Gust SpeedMPH,PrecipitationIn,Events,Conditions,WindDirDegrees,DateUTC
12:53 AM,73.9,48.9,41,29.75,10.0,SE,8.1,-,N/A,,Clear,130,2011-10-04 07:53:00
1:53 AM,73.0,48.9,42,29.74,10.0,SW,5.8,-,N/A,,Clear,220,2011-10-04 08:53:00
2:53 AM,73.0,46.9,39,29.73,10.0,WNW,10.4,-,N/A,,Clear,300,2011-10-04 09:53:00
3:53 AM,71.6,46.4,41,29.74,10.0,WNW,9.2,20.7,N/A,,Clear,300,2011-10-04 10:53:00
4:53 AM,70.0,48.0,46,29.73,10.0,West,4.6,-,N/A,,Clear,270,2011-10-04 11:53:00
5:53 AM,69.1,48.0,47,29.76,10.0,Calm,Calm,-,N/A,,Clear,0,2011-10-04 12:53:00
6:53 AM,68.0,48.9,50,29.78,10.0,SSW,6.9,-,N/A,,Mostly Cloudy,210,2011-10-04 13:53:00
7:53 AM,69.1,48.9,49,29.79,10.0,Calm,Calm,-,N/A,,Mostly Cloudy,0,2011-10-04 14:53:00
8:53 AM,70.0,46.9,44,29.80,10.0,Calm,Calm,-,N/A,,Mostly Cloudy,0,2011-10-04 15:53:00
9:53 AM,73.9,46.0,37,29.80,10.0,Variable,4.6,-,N/A,,Scattered Clouds,0,2011-10-04 16:53:00
10:53 AM,79.0,44.1,29,29.80,10.0,Variable,3.5,-,N/A,,Scattered Clouds,0,2011-10-04 17:53:00
11:53 AM,81.0,44.1,27,29.78,10.0,NW,15.0,25.3,N/A,,Clear,320,2011-10-04 18:53:00
12:07 PM,80.6,44.6,28,29.79,10.0,NNW,24.2,28.8,N/A,,Scattered Clouds,330,2011-10-04 19:07:00
12:53 PM,82.0,44.1,26,29.77,10.0,NNW,17.3,24.2,N/A,,Scattered Clouds,340,2011-10-04 19:53:00
1:53 PM,82.0,44.1,26,29.75,10.0,NW,16.1,24.2,N/A,,Clear,320,2011-10-04 20:53:00
2:53 PM,82.4,41.0,23,29.76,10.0,NW,13.8,27.6,N/A,,Clear,310,2011-10-04 21:53:00
3:53 PM,80.6,42.1,25,29.74,10.0,NW,18.4,29.9,N/A,,Scattered Clouds,310,2011-10-04 22:53:00
5:53 PM,75.2,44.6,34,29.77,10.0,NNW,13.8,17.3,N/A,,Scattered Clouds,330,2011-10-05 00:53:00
6:53 PM,73.9,45.0,35,29.78,10.0,East,8.1,-,N/A,,Scattered Clouds,100,2011-10-05 01:53:00
7:53 PM,73.0,43.0,34,29.81,10.0,NW,6.9,-,N/A,,Clear,310,2011-10-05 02:53:00
8:53 PM,72.0,44.1,37,29.81,10.0,Calm,Calm,-,N/A,,Clear,0,2011-10-05 03:53:00
9:53 PM,71.1,46.9,42,29.81,10.0,NW,9.2,-,N/A,,Clear,320,2011-10-05 04:53:00
10:53 PM,70.0,46.9,44,29.81,10.0,NW,11.5,25.3,N/A,,Clear,320,2011-10-05 05:53:00
11:53 PM,70.0,45.0,41,29.82,10.0,NW,11.5,-,N/A,,Clear,310,2011-10-05 06:53:00